FW8306 Weather Reports


Display with metric or nautical units.
time (UTC)temp
F
wind
direction
speed
MPH
gust
MPH
rain 1hr
in
rain 24hr
in
rain mn
in
humidity
%
barometer
mb
20260509051556 45 0.0 0.0 0.00 0.00 0.00 72 1025.4
20260509050057 42 0.0 0.0 0.00 0.00 0.00 80 1025.5
20260509044550 39 0.0 0.0 0.00 0.00 0.00 82 1025.4
20260509043050 38 0.0 0.0 0.00 0.00 0.00 82 1025.3
20260509041553 36 0.0 0.0 0.00 0.00 0.00 83 1025.4
20260509040124 36 0.0 0.0 0.00 0.00 0.00 83 1025.4
20260509034556 36 0.0 0.0 0.00 0.00 0.00 82 1025.5
20260509033054 35 0.0 0.0 0.00 0.00 0.00 82 1025.5
20260509031600 35 0.0 0.0 0.00 0.00 0.00 81 1025.4
20260509030054 36 0.0 0.0 0.00 0.00 0.00 81 1025.5
20260509024555 36 0.0 0.0 0.00 0.00 0.00 80 1025.5
20260509023056 37 0.0 0.0 0.00 0.00 0.00 79 1025.4
20260509021553 37 0.0 0.0 0.00 0.00 0.00 78 1025.6
20260509020052 37 0.0 0.0 0.00 0.00 0.00 77 1025.8
20260509014550 38 0.0 0.0 0.00 0.00 0.00 76 1026.0
20260509013056 38 0.0 0.0 0.00 0.00 0.00 75 1026.0
20260509011558 39 0.0 0.0 0.00 0.00 0.00 74 1025.9
20260509010059 40 0.0 0.0 0.00 0.00 0.00 73 1025.9
20260509004606 40 0.0 0.0 0.00 0.00 0.00 71 1026.0
20260509003054 41 0.0 0.0 0.00 0.00 0.00 68 1026.0
20260509001556 42 0.0 0.0 0.00 0.00 0.00 66 1026.3
20260509000101 43 0.0 0.0 0.00 0.00 0.00 64 1026.2
20260508234556 44 0.0 0.0 0.00 0.00 0.00 61 1026.4
20260508233053 45 0.0 0.0 0.00 0.00 0.00 59 1026.4
20260508231556 46 0.0 0.0 0.00 0.00 0.00 58 1026.3
20260508230101 46 0.0 0.0 0.00 0.00 0.00 55 1026.3
20260508224555 47 0.0 0.0 0.00 0.00 0.00 53 1026.4
20260508223054 47 0.0 0.0 0.00 0.00 0.00 51 1026.4
20260508221552 47 0.0 0.0 0.00 0.00 0.00 49 1026.4
20260508220100 47 0.0 0.0 0.00 0.00 0.00 46 1026.3
20260508214601 47 0.0 0.0 0.00 0.00 0.00 46 1026.2
20260508213050 48 0.0 0.0 0.00 0.00 0.00 49 1026.3
20260508211553 48 0.0 0.0 0.00 0.00 0.00 50 1026.1
20260508210051 49 0.0 0.0 0.00 0.00 0.00 51 1026.0
20260508204557 50 0.0 0.0 0.00 0.00 0.00 50 1025.9
20260508203100 51 0.0 0.0 0.00 0.00 0.00 46 1025.8
20260508201550 51 0.0 0.0 0.00 0.00 0.00 46 1025.7
20260508200053 51 0.0 0.0 0.00 0.00 0.00 42 1025.6
20260508194559 51 0.0 0.0 0.00 0.00 0.00 43 1025.3
20260508193106 52 0.0 0.0 0.00 0.00 0.00 42 1025.3
20260508191601 52 0.0 0.0 0.00 0.00 0.00 42 1025.3
20260508190055 53 0.0 0.0 0.00 0.00 0.00 41 1025.3
20260508184608 54 0.0 0.0 0.00 0.00 0.00 40 1025.2
20260508183053 54 0.0 0.0 0.00 0.00 0.00 40 1025.1
20260508181603 55 0.0 0.0 0.00 0.00 0.00 41 1025.0
20260508180055 55 0.0 0.0 0.00 0.00 0.00 37 1024.8
20260508174559 56 0.0 0.0 0.00 0.00 0.00 35 1024.8
20260508173051 56 0.0 0.0 0.00 0.00 0.00 36 1024.7
20260508171555 57 0.0 0.0 0.00 0.00 0.00 36 1024.6
20260508170052 58 0.0 0.0 0.00 0.00 0.00 45 1024.5
20260508164554 58 0.0 0.0 0.00 0.00 0.00 37 1024.5
20260508163053 58 0.0 0.0 0.00 0.00 0.00 37 1024.6
20260508161556 58 0.0 0.0 0.00 0.00 0.00 40 1024.5
20260508160123 58 0.0 0.0 0.00 0.00 0.00 42 1024.5
20260508154557 58 0.0 0.0 0.00 0.00 0.00 41 1024.5
20260508153054 58 0.0 0.0 0.00 0.00 0.00 40 1024.3
20260508151552 59 0.0 0.0 0.00 0.00 0.00 40 1024.4
20260508150053 58 0.0 0.0 0.00 0.00 0.00 41 1024.6
20260508144551 59 0.0 0.0 0.00 0.00 0.00 41 1024.5
20260508143104 59 0.0 0.0 0.00 0.00 0.00 39 1024.6
20260508141556 59 0.0 0.0 0.00 0.00 0.00 39 1024.8
20260508140053 58 0.0 0.0 0.00 0.00 0.00 39 1024.8
20260508134555 58 0.0 0.0 0.00 0.00 0.00 40 1024.9
20260508133057 59 0.0 0.0 0.00 0.00 0.00 40 1024.9
20260508131555 59 0.0 0.0 0.00 0.00 0.00 39 1024.9
20260508130100 60 0.0 0.0 0.00 0.00 0.00 39 1025.0
20260508124554 59 0.0 0.0 0.00 0.00 0.00 39 1025.0
20260508123057 60 0.0 0.0 0.00 0.00 0.00 38 1025.0
20260508121606 59 0.0 0.0 0.00 0.00 0.00 37 1025.0
20260508120057 59 0.0 0.0 0.00 0.00 0.00 37 1025.0
20260508114556 59 0.0 0.0 0.00 0.00 0.00 39 1024.9
20260508113107 59 0.0 0.0 0.00 0.00 0.00 40 1025.0
20260508111603 59 0.0 0.0 0.00 0.00 0.00 40 1024.9
20260508110059 59 0.0 0.0 0.00 0.00 0.00 41 1025.0
20260508104558 60 0.0 0.0 0.00 0.00 0.00 40 1024.9
20260508103103 59 0.0 0.0 0.00 0.00 0.00 39 1025.0
20260508101548 59 0.0 0.0 0.00 0.00 0.00 39 1024.8
20260508100051 59 0.0 0.0 0.00 0.00 0.00 39 1025.0
20260508094605 59 0.0 0.0 0.00 0.00 0.00 39 1024.9
20260508093053 58 0.0 0.0 0.00 0.00 0.00 38 1024.9
20260508091555 58 0.0 0.0 0.00 0.00 0.00 38 1025.0
20260508090051 57 0.0 0.0 0.00 0.00 0.00 37 1024.9
20260508084553 57 0.0 0.0 0.00 0.00 0.00 44 1024.9
20260508083130 57 0.0 0.0 0.00 0.00 0.00 48 1024.7
20260508081554 56 0.0 0.0 0.00 0.00 0.00 55 1024.7
20260508080100 57 0.0 0.0 0.00 0.00 0.00 55 1024.6
20260508074552 57 0.0 0.0 0.00 0.00 0.00 56 1024.6
20260508073056 56 0.0 0.0 0.00 0.00 0.00 58 1024.5
20260508071555 55 0.0 0.0 0.00 0.00 0.00 63 1024.4
20260508070058 53 0.0 0.0 0.00 0.00 0.00 66 1024.1
20260508064607 52 0.0 0.0 0.00 0.00 0.00 67 1024.1
20260508063048 51 0.0 0.0 0.00 0.00 0.00 75 1023.9
20260508061553 50 0.0 0.0 0.00 0.00 0.00 81 1023.8
20260508060106 49 0.0 0.0 0.00 0.00 0.00 82 1023.6
20260508054554 48 0.0 0.0 0.00 0.00 0.00 87 1023.6
20260508053049 47 0.0 0.0 0.00 0.00 0.00 89 1023.4